Time,TemperatureF,DewpointF,PressureIn,WindDirection,WindDirectionDegrees,WindSpeedMPH,WindSpeedGustMPH,Humidity,HourlyPrecipIn,Conditions,Clouds,dailyrainin,SoftwareType,DateUTC
2013-04-05 00:00:00,41.1,32.8,30.08,WSW,239,2.0,2.0,72,0.00,,,0.00,Wunderground v.1.15,2013-04-05 04:00:00,
2013-04-05 00:05:00,41.1,32.8,30.08,WSW,238,2.0,4.0,72,0.00,,,0.00,Wunderground v.1.15,2013-04-05 04:05:00,
2013-04-05 00:10:00,41.1,33.1,30.08,SE,132,2.0,2.0,73,0.00,,,0.00,Wunderground v.1.15,2013-04-05 04:10:00,
2013-04-05 00:15:00,41.1,33.1,30.08,WSW,257,2.0,2.0,73,0.00,,,0.00,Wunderground v.1.15,2013-04-05 04:15:00,
2013-04-05 00:20:00,41.2,32.9,30.07,SSE,161,2.0,2.0,72,0.00,,,0.00,Wunderground v.1.15,2013-04-05 04:20:00,
2013-04-05 00:25:00,41.2,33.2,30.07,WSW,240,2.0,2.0,73,0.00,,,0.00,Wunderground v.1.15,2013-04-05 04:25:00,
2013-04-05 00:30:00,41.3,33.0,30.07,WSW,246,2.0,3.0,72,0.00,,,0.00,Wunderground v.1.15,2013-04-05 04:30:00,
2013-04-05 00:35:00,41.3,33.0,30.07,SSW,212,2.0,5.0,72,0.00,,,0.00,Wunderground v.1.15,2013-04-05 04:35:00,
2013-04-05 00:50:00,41.5,33.1,30.07,South,175,3.0,6.0,72,0.00,,,0.00,Wunderground v.1.15,2013-04-05 04:50:00,
2013-04-05 00:55:00,41.6,33.2,30.07,WSW,252,2.0,6.0,72,0.00,,,0.00,Wunderground v.1.15,2013-04-05 04:55:00,
2013-04-05 01:00:00,41.7,33.3,30.07,WSW,252,2.0,3.0,72,0.00,,,0.00,Wunderground v.1.15,2013-04-05 05:00:00,
2013-04-05 01:10:00,41.7,33.3,30.07,SSE,166,2.0,2.0,72,0.00,,,0.00,Wunderground v.1.15,2013-04-05 05:10:00,
2013-04-05 01:15:00,41.7,33.3,30.06,West,266,2.0,2.0,72,0.00,,,0.00,Wunderground v.1.15,2013-04-05 05:15:00,
2013-04-05 01:25:00,41.7,33.3,30.06,WSW,246,2.0,5.0,72,0.00,,,0.00,Wunderground v.1.15,2013-04-05 05:25:00,
2013-04-05 01:30:00,41.8,33.1,30.06,WNW,287,2.0,5.0,71,0.00,,,0.00,Wunderground v.1.15,2013-04-05 05:30:00,
2013-04-05 01:35:00,41.8,33.1,30.06,West,267,2.0,5.0,71,0.00,,,0.00,Wunderground v.1.15,2013-04-05 05:35:00,
2013-04-05 01:45:00,41.7,33.3,30.05,WSW,246,1.0,2.0,72,0.00,,,0.00,Wunderground v.1.15,2013-04-05 05:45:00,
2013-04-05 01:50:00,41.7,33.0,30.05,South,172,1.0,1.0,71,0.00,,,0.00,Wunderground v.1.15,2013-04-05 05:50:00,
2013-04-05 01:55:00,41.7,33.3,30.04,West,262,1.0,2.0,72,0.00,,,0.00,Wunderground v.1.15,2013-04-05 05:55:00,
2013-04-05 02:05:00,41.8,33.4,30.03,South,190,3.0,3.0,72,0.00,,,0.00,Wunderground v.1.15,2013-04-05 06:05:00,
2013-04-05 02:10:00,42.5,34.1,30.03,SSW,200,3.0,3.0,72,0.00,,,0.00,Wunderground v.1.15,2013-04-05 06:10:00,
2013-04-05 02:15:00,41.7,33.3,30.03,West,278,2.0,3.0,72,0.00,,,0.00,Wunderground v.1.15,2013-04-05 06:15:00,
2013-04-05 02:20:00,41.7,33.3,30.02,SW,215,2.0,2.0,72,0.00,,,0.00,Wunderground v.1.15,2013-04-05 06:20:00,
2013-04-05 02:25:00,41.6,33.6,30.02,SSW,203,1.0,2.0,73,0.00,,,0.00,Wunderground v.1.15,2013-04-05 06:25:00,
2013-04-05 02:30:00,41.6,33.9,30.02,SW,219,2.0,3.0,74,0.00,,,0.00,Wunderground v.1.15,2013-04-05 06:30:00,
2013-04-05 02:35:00,41.5,34.2,30.02,SSW,208,2.0,5.0,75,0.00,,,0.00,Wunderground v.1.15,2013-04-05 06:35:00,
2013-04-05 02:45:00,41.1,34.4,30.01,West,259,2.0,2.0,77,0.00,,,0.00,Wunderground v.1.15,2013-04-05 06:45:00,
2013-04-05 02:50:00,40.9,34.6,30.01,SW,225,1.0,1.0,78,0.00,,,0.00,Wunderground v.1.15,2013-04-05 06:50:00,
2013-04-05 02:55:00,40.7,34.7,30.01,SW,221,1.0,1.0,79,0.00,,,0.00,Wunderground v.1.15,2013-04-05 06:55:00,
2013-04-05 03:00:00,40.5,34.8,30.01,WSW,249,1.0,1.0,80,0.00,,,0.00,Wunderground v.1.15,2013-04-05 07:00:00,
2013-04-05 03:05:00,40.4,35.0,30.01,SW,235,1.0,1.0,81,0.00,,,0.00,Wunderground v.1.15,2013-04-05 07:05:00,
2013-04-05 03:10:00,40.2,35.1,30.00,SW,235,1.0,1.0,82,0.00,,,0.00,Wunderground v.1.15,2013-04-05 07:10:00,
2013-04-05 03:20:00,39.6,35.2,30.00,WSW,246,2.0,2.0,84,0.00,,,0.01,Wunderground v.1.15,2013-04-05 07:20:00,
2013-04-05 03:30:00,39.4,35.6,30.00,WSW,246,1.0,2.0,86,0.00,,,0.01,Wunderground v.1.15,2013-04-05 07:30:00,
2013-04-05 03:35:00,39.3,35.8,29.99,SSW,203,0.0,3.0,87,0.00,,,0.01,Wunderground v.1.15,2013-04-05 07:35:00,
2013-04-05 03:40:00,39.1,35.6,29.99,SW,222,1.0,1.0,87,0.04,,,0.02,Wunderground v.1.15,2013-04-05 07:40:00,
2013-04-05 03:50:00,38.9,35.6,29.98,West,271,0.0,0.0,88,0.04,,,0.02,Wunderground v.1.15,2013-04-05 07:50:00,
2013-04-05 03:55:00,38.8,35.8,29.98,WSW,255,0.0,0.0,89,0.00,,,0.03,Wunderground v.1.15,2013-04-05 07:55:00,
2013-04-05 04:00:00,38.7,35.7,29.97,WSW,257,0.0,0.0,89,0.00,,,0.03,Wunderground v.1.15,2013-04-05 08:00:00,
2013-04-05 04:05:00,38.7,35.7,29.97,West,259,0.0,0.0,89,0.00,,,0.03,Wunderground v.1.15,2013-04-05 08:05:00,
2013-04-05 04:15:00,38.5,35.8,29.97,West,259,0.0,0.0,90,0.00,,,0.03,Wunderground v.1.15,2013-04-05 08:15:00,
2013-04-05 04:20:00,38.5,35.8,29.96,West,259,0.0,0.0,90,0.00,,,0.04,Wunderground v.1.15,2013-04-05 08:20:00,
2013-04-05 04:30:00,38.4,35.7,29.95,WSW,257,0.0,0.0,90,0.00,,,0.04,Wunderground v.1.15,2013-04-05 08:30:00,
2013-04-05 04:35:00,38.3,35.6,29.94,WSW,257,0.0,0.0,90,0.00,,,0.04,Wunderground v.1.15,2013-04-05 08:35:00,
2013-04-05 04:40:00,38.2,35.5,29.94,WSW,257,0.0,0.0,90,0.00,,,0.05,Wunderground v.1.15,2013-04-05 08:40:00,
2013-04-05 04:45:00,38.2,35.8,29.94,WSW,257,0.0,0.0,91,0.00,,,0.05,Wunderground v.1.15,2013-04-05 08:45:00,
2013-04-05 04:50:00,38.1,35.4,29.95,WSW,257,0.0,0.0,90,0.00,,,0.05,Wunderground v.1.15,2013-04-05 08:50:00,
2013-04-05 05:00:00,38.1,35.7,29.95,WSW,257,0.0,0.0,91,0.00,,,0.05,Wunderground v.1.15,2013-04-05 09:00:00,
2013-04-05 05:05:00,38.1,35.7,29.95,WSW,257,0.0,0.0,91,0.00,,,0.05,Wunderground v.1.15,2013-04-05 09:05:00,
2013-04-05 05:10:00,38.2,35.8,29.95,WSW,257,0.0,0.0,91,0.00,,,0.05,Wunderground v.1.15,2013-04-05 09:10:00,
2013-04-05 05:15:00,38.2,35.8,29.95,WSW,257,0.0,0.0,91,0.00,,,0.05,Wunderground v.1.15,2013-04-05 09:15:00,
2013-04-05 05:20:00,38.1,35.7,29.95,WSW,257,0.0,0.0,91,0.00,,,0.05,Wunderground v.1.15,2013-04-05 09:20:00,
2013-04-05 05:25:00,38.1,35.7,29.95,WSW,257,0.0,0.0,91,0.00,,,0.06,Wunderground v.1.15,2013-04-05 09:25:00,
2013-04-05 05:30:00,38.1,36.0,29.95,WSW,257,0.0,0.0,92,0.00,,,0.06,Wunderground v.1.15,2013-04-05 09:30:00,
2013-04-05 05:40:00,38.1,36.0,29.94,SE,134,0.0,2.0,92,0.05,,,0.07,Wunderground v.1.15,2013-04-05 09:40:00,
2013-04-05 05:45:00,38.1,35.7,29.94,SE,139,1.0,2.0,91,0.05,,,0.07,Wunderground v.1.15,2013-04-05 09:45:00,
2013-04-05 05:55:00,38.0,35.6,29.94,SSE,154,1.0,2.0,91,0.06,,,0.08,Wunderground v.1.15,2013-04-05 09:55:00,
2013-04-05 06:05:00,38.0,35.6,29.93,SSE,150,0.0,1.0,91,0.04,,,0.09,Wunderground v.1.15,2013-04-05 10:05:00,
2013-04-05 06:10:00,38.0,35.6,29.93,SSE,150,0.0,0.0,91,0.10,,,0.10,Wunderground v.1.15,2013-04-05 10:10:00,
2013-04-05 06:15:00,37.9,35.5,29.94,SSE,150,0.0,0.0,91,0.14,,,0.11,Wunderground v.1.15,2013-04-05 10:15:00,
2013-04-05 06:20:00,37.9,35.5,29.93,SSE,150,0.0,0.0,91,0.12,,,0.12,Wunderground v.1.15,2013-04-05 10:20:00,
2013-04-05 06:25:00,37.9,35.5,29.92,SSE,150,0.0,0.0,91,0.21,,,0.14,Wunderground v.1.15,2013-04-05 10:25:00,
2013-04-05 06:35:00,37.7,35.3,29.92,SSE,150,0.0,0.0,91,0.14,,,0.16,Wunderground v.1.15,2013-04-05 10:35:00,
2013-04-05 06:40:00,37.7,35.6,29.92,SSE,150,0.0,0.0,92,0.11,,,0.17,Wunderground v.1.15,2013-04-05 10:40:00,
2013-04-05 06:45:00,37.8,35.7,29.91,SE,127,0.0,1.0,92,0.12,,,0.18,Wunderground v.1.15,2013-04-05 10:45:00,
2013-04-05 06:50:00,37.8,35.7,29.92,ESE,123,1.0,1.0,92,0.12,,,0.19,Wunderground v.1.15,2013-04-05 10:50:00,
2013-04-05 06:55:00,37.7,35.6,29.92,ESE,123,0.0,1.0,92,0.07,,,0.19,Wunderground v.1.15,2013-04-05 10:55:00,
2013-04-05 07:05:00,37.6,35.5,29.92,ESE,122,0.0,1.0,92,0.06,,,0.20,Wunderground v.1.15,2013-04-05 11:05:00,
2013-04-05 07:10:00,37.6,35.5,29.92,ESE,123,0.0,0.0,92,0.06,,,0.21,Wunderground v.1.15,2013-04-05 11:10:00,
2013-04-05 07:15:00,37.6,35.5,29.92,SE,146,0.0,1.0,92,0.06,,,0.21,Wunderground v.1.15,2013-04-05 11:15:00,
2013-04-05 07:20:00,37.6,35.5,29.92,ESE,117,1.0,1.0,92,0.04,,,0.21,Wunderground v.1.15,2013-04-05 11:20:00,
2013-04-05 07:25:00,37.5,35.4,29.91,ESE,115,1.0,1.0,92,0.00,,,0.21,Wunderground v.1.15,2013-04-05 11:25:00,
2013-04-05 07:35:00,37.5,35.4,29.90,East,79,1.0,1.0,92,0.00,,,0.21,Wunderground v.1.15,2013-04-05 11:35:00,
2013-04-05 07:40:00,37.6,35.5,29.90,East,81,1.0,1.0,92,0.00,,,0.21,Wunderground v.1.15,2013-04-05 11:40:00,
2013-04-05 07:45:00,37.6,35.5,29.89,East,79,1.0,1.0,92,0.00,,,0.22,Wunderground v.1.15,2013-04-05 11:45:00,
2013-04-05 07:55:00,37.6,35.5,29.89,NE,51,1.0,1.0,92,0.00,,,0.22,Wunderground v.1.15,2013-04-05 11:55:00,
2013-04-05 08:00:00,37.7,35.6,29.89,NE,45,1.0,1.0,92,0.00,,,0.22,Wunderground v.1.15,2013-04-05 12:00:00,
2013-04-05 08:05:00,37.8,35.7,29.89,NE,45,0.0,1.0,92,0.00,,,0.22,Wunderground v.1.15,2013-04-05 12:05:00,
2013-04-05 08:10:00,37.7,35.6,29.89,ENE,64,0.0,0.0,92,0.00,,,0.22,Wunderground v.1.15,2013-04-05 12:10:00,
2013-04-05 08:15:00,37.7,35.6,29.90,ENE,61,0.0,0.0,92,0.00,,,0.22,Wunderground v.1.15,2013-04-05 12:15:00,
2013-04-05 08:20:00,37.8,35.7,29.89,ENE,63,0.0,0.0,92,0.00,,,0.23,Wunderground v.1.15,2013-04-05 12:20:00,
2013-04-05 08:25:00,37.9,35.8,29.89,ENE,61,1.0,1.0,92,0.00,,,0.23,Wunderground v.1.15,2013-04-05 12:25:00,
2013-04-05 08:35:00,37.9,35.8,29.89,ENE,58,1.0,1.0,92,0.00,,,0.23,Wunderground v.1.15,2013-04-05 12:35:00,
2013-04-05 08:40:00,38.0,35.9,29.89,NNE,15,1.0,1.0,92,0.00,,,0.23,Wunderground v.1.15,2013-04-05 12:40:00,
2013-04-05 08:45:00,38.1,36.0,29.88,NNE,16,1.0,1.0,92,0.00,,,0.23,Wunderground v.1.15,2013-04-05 12:45:00,
2013-04-05 08:50:00,38.2,36.1,29.87,NNE,27,2.0,3.0,92,0.00,,,0.23,Wunderground v.1.15,2013-04-05 12:50:00,
2013-04-05 09:00:00,38.5,36.7,29.86,NNE,18,3.0,5.0,93,0.00,,,0.23,Wunderground v.1.15,2013-04-05 13:00:00,
2013-04-05 09:05:00,38.7,36.9,29.86,NNE,32,3.0,5.0,93,0.00,,,0.23,Wunderground v.1.15,2013-04-05 13:05:00,
2013-04-05 09:10:00,38.9,37.0,29.85,NNW,343,3.0,3.0,93,0.00,,,0.23,Wunderground v.1.15,2013-04-05 13:10:00,
2013-04-05 09:15:00,39.0,37.1,29.85,NNW,330,3.0,3.0,93,0.00,,,0.23,Wunderground v.1.15,2013-04-05 13:15:00,
2013-04-05 09:25:00,39.5,37.6,29.85,NNW,335,4.0,4.0,93,0.00,,,0.23,Wunderground v.1.15,2013-04-05 13:25:00,
2013-04-05 09:30:00,39.6,37.7,29.85,NNW,330,4.0,5.0,93,0.00,,,0.23,Wunderground v.1.15,2013-04-05 13:30:00,
2013-04-05 09:40:00,40.2,38.6,29.85,NNW,332,4.0,7.0,94,0.00,,,0.23,Wunderground v.1.15,2013-04-05 13:40:00,
2013-04-05 09:45:00,40.2,38.3,29.84,NNE,26,5.0,7.0,93,0.00,,,0.23,Wunderground v.1.15,2013-04-05 13:45:00,
2013-04-05 09:50:00,40.5,38.6,29.84,NW,321,5.0,5.0,93,0.00,,,0.23,Wunderground v.1.15,2013-04-05 13:50:00,
2013-04-05 10:00:00,41.0,39.1,29.85,NNW,342,5.0,5.0,93,0.00,,,0.23,Wunderground v.1.15,2013-04-05 14:00:00,
2013-04-05 10:05:00,41.0,39.1,29.84,NW,319,5.0,5.0,93,0.00,,,0.23,Wunderground v.1.15,2013-04-05 14:05:00,
2013-04-05 10:10:00,41.0,39.1,29.85,North,11,5.0,6.0,93,0.00,,,0.23,Wunderground v.1.15,2013-04-05 14:10:00,
2013-04-05 10:15:00,41.1,39.2,29.85,North,360,5.0,7.0,93,0.00,,,0.23,Wunderground v.1.15,2013-04-05 14:15:00,
2013-04-05 10:20:00,41.2,39.1,29.84,NW,305,4.0,4.0,92,0.00,,,0.23,Wunderground v.1.15,2013-04-05 14:20:00,
2013-04-05 10:35:00,42.0,39.3,29.83,NNW,337,3.0,3.0,90,0.00,,,0.23,Wunderground v.1.15,2013-04-05 14:35:00,
2013-04-05 10:40:00,42.5,39.8,29.83,NW,316,3.0,3.0,90,0.00,,,0.23,Wunderground v.1.15,2013-04-05 14:40:00,
2013-04-05 10:45:00,43.3,40.6,29.83,NNW,340,3.0,3.0,90,0.00,,,0.23,Wunderground v.1.15,2013-04-05 14:45:00,
2013-04-05 10:55:00,44.5,41.2,29.83,NW,322,5.0,6.0,88,0.00,,,0.23,Wunderground v.1.15,2013-04-05 14:55:00,
2013-04-05 11:00:00,44.8,41.2,29.82,NW,323,5.0,5.0,87,0.00,,,0.23,Wunderground v.1.15,2013-04-05 15:00:00,
2013-04-05 11:10:00,44.6,40.7,29.82,ESE,112,3.0,5.0,86,0.00,,,0.23,Wunderground v.1.15,2013-04-05 15:10:00,
2013-04-05 11:20:00,43.7,39.5,29.82,East,84,5.0,6.0,85,0.00,,,0.23,Wunderground v.1.15,2013-04-05 15:20:00,
2013-04-05 11:25:00,43.6,39.7,29.81,SE,126,5.0,6.0,86,0.00,,,0.23,Wunderground v.1.15,2013-04-05 15:25:00,
2013-04-05 11:35:00,43.5,39.3,29.81,East,94,4.0,5.0,85,0.00,,,0.23,Wunderground v.1.15,2013-04-05 15:35:00,
2013-04-05 11:40:00,43.9,40.0,29.81,NE,56,5.0,7.0,86,0.00,,,0.23,Wunderground v.1.15,2013-04-05 15:40:00,
2013-04-05 11:45:00,44.0,40.4,29.80,NE,54,5.0,7.0,87,0.00,,,0.23,Wunderground v.1.15,2013-04-05 15:45:00,
2013-04-05 11:50:00,43.8,39.9,29.80,ENE,63,6.0,6.0,86,0.00,,,0.23,Wunderground v.1.15,2013-04-05 15:50:00,
2013-04-05 11:55:00,44.0,39.8,29.80,East,79,6.0,7.0,85,0.00,,,0.23,Wunderground v.1.15,2013-04-05 15:55:00,
2013-04-05 12:05:00,44.3,39.8,29.79,ENE,66,6.0,7.0,84,0.00,,,0.23,Wunderground v.1.15,2013-04-05 16:05:00,
2013-04-05 12:10:00,44.3,39.2,29.79,ENE,75,6.0,7.0,82,0.00,,,0.23,Wunderground v.1.15,2013-04-05 16:10:00,
2013-04-05 12:15:00,44.3,39.2,29.79,ENE,75,6.0,7.0,82,0.00,,,0.23,Wunderground v.1.15,2013-04-05 16:15:00,
2013-04-05 12:25:00,45.1,39.0,29.78,ENE,72,6.0,8.0,79,0.00,,,0.23,Wunderground v.1.15,2013-04-05 16:25:00,
2013-04-05 12:35:00,45.2,38.7,29.77,ENE,70,7.0,9.0,78,0.00,,,0.23,Wunderground v.1.15,2013-04-05 16:35:00,
2013-04-05 12:40:00,45.3,37.8,29.77,ENE,61,7.0,7.0,75,0.00,,,0.23,Wunderground v.1.15,2013-04-05 16:40:00,
2013-04-05 12:45:00,45.3,37.8,29.77,East,95,6.0,7.0,75,0.00,,,0.23,Wunderground v.1.15,2013-04-05 16:45:00,
2013-04-05 12:50:00,45.6,37.8,29.76,ESE,103,6.0,6.0,74,0.00,,,0.23,Wunderground v.1.15,2013-04-05 16:50:00,
2013-04-05 13:00:00,45.0,38.2,29.76,ENE,70,6.0,6.0,77,0.00,,,0.23,Wunderground v.1.15,2013-04-05 17:00:00,
2013-04-05 13:05:00,45.2,38.1,29.75,East,84,5.0,6.0,76,0.00,,,0.23,Wunderground v.1.15,2013-04-05 17:05:00,
2013-04-05 13:10:00,45.2,38.1,29.75,ENE,75,6.0,6.0,76,0.00,,,0.23,Wunderground v.1.15,2013-04-05 17:10:00,
2013-04-05 13:15:00,45.4,37.6,29.75,East,91,6.0,6.0,74,0.00,,,0.23,Wunderground v.1.15,2013-04-05 17:15:00,
2013-04-05 13:20:00,45.6,38.1,29.76,East,84,6.0,6.0,75,0.00,,,0.23,Wunderground v.1.15,2013-04-05 17:20:00,
2013-04-05 13:25:00,45.9,38.1,29.76,SE,135,6.0,6.0,74,0.00,,,0.23,Wunderground v.1.15,2013-04-05 17:25:00,
2013-04-05 13:30:00,46.1,37.9,29.76,SE,128,5.0,7.0,73,0.00,,,0.23,Wunderground v.1.15,2013-04-05 17:30:00,
2013-04-05 13:35:00,47.2,39.3,29.77,SE,143,5.0,7.0,74,0.00,,,0.23,Wunderground v.1.15,2013-04-05 17:35:00,
2013-04-05 13:45:00,47.2,37.9,29.76,ESE,117,6.0,6.0,70,0.00,,,0.23,Wunderground v.1.15,2013-04-05 17:45:00,
2013-04-05 13:50:00,47.1,37.8,29.75,East,94,5.0,5.0,70,0.00,,,0.23,Wunderground v.1.15,2013-04-05 17:50:00,
2013-04-05 13:55:00,47.4,35.8,29.75,ESE,117,5.0,5.0,64,0.00,,,0.23,Wunderground v.1.15,2013-04-05 17:55:00,
2013-04-05 14:00:00,47.7,36.1,29.74,East,83,4.0,4.0,64,0.00,,,0.23,Wunderground v.1.15,2013-04-05 18:00:00,
2013-04-05 14:10:00,46.9,35.7,29.73,East,94,6.0,7.0,65,0.00,,,0.23,Wunderground v.1.15,2013-04-05 18:10:00,
2013-04-05 14:15:00,46.8,36.4,29.73,East,90,6.0,7.0,67,0.00,,,0.23,Wunderground v.1.15,2013-04-05 18:15:00,
2013-04-05 14:20:00,47.3,35.7,29.73,East,86,5.0,6.0,64,0.00,,,0.23,Wunderground v.1.15,2013-04-05 18:20:00,
2013-04-05 14:30:00,47.7,36.1,29.72,ESE,112,4.0,5.0,64,0.00,,,0.23,Wunderground v.1.15,2013-04-05 18:30:00,
2013-04-05 14:35:00,48.3,36.3,29.72,East,84,3.0,5.0,63,0.00,,,0.23,Wunderground v.1.15,2013-04-05 18:35:00,
2013-04-05 14:40:00,48.5,36.5,29.71,ESE,112,3.0,3.0,63,0.00,,,0.23,Wunderground v.1.15,2013-04-05 18:40:00,
2013-04-05 14:45:00,48.6,36.6,29.71,ESE,103,3.0,4.0,63,0.00,,,0.23,Wunderground v.1.15,2013-04-05 18:45:00,
2013-04-05 14:50:00,48.7,35.8,29.71,ESE,113,3.0,5.0,61,0.00,,,0.23,Wunderground v.1.15,2013-04-05 18:50:00,
2013-04-05 14:55:00,48.8,36.4,29.70,SE,135,4.0,5.0,62,0.00,,,0.23,Wunderground v.1.15,2013-04-05 18:55:00,
2013-04-05 15:05:00,49.6,35.8,29.70,SE,138,4.0,4.0,59,0.00,,,0.23,Wunderground v.1.15,2013-04-05 19:05:00,
2013-04-05 15:10:00,49.6,37.5,29.70,ESE,107,5.0,5.0,63,0.00,,,0.23,Wunderground v.1.15,2013-04-05 19:10:00,
2013-04-05 15:20:00,49.7,35.9,29.70,East,90,5.0,5.0,59,0.00,,,0.23,Wunderground v.1.15,2013-04-05 19:20:00,
2013-04-05 15:25:00,49.5,36.2,29.70,ESE,117,4.0,5.0,60,0.00,,,0.23,Wunderground v.1.15,2013-04-05 19:25:00,
2013-04-05 15:30:00,49.9,37.0,29.70,ESE,115,4.0,5.0,61,0.00,,,0.23,Wunderground v.1.15,2013-04-05 19:30:00,
2013-04-05 15:35:00,50.4,35.3,29.70,SE,139,4.0,5.0,56,0.00,,,0.23,Wunderground v.1.15,2013-04-05 19:35:00,
2013-04-05 15:45:00,50.8,35.2,29.70,ESE,120,6.0,7.0,55,0.00,,,0.23,Wunderground v.1.15,2013-04-05 19:45:00,
2013-04-05 15:50:00,51.3,35.2,29.69,SSE,165,4.0,4.0,54,0.00,,,0.23,Wunderground v.1.15,2013-04-05 19:50:00,
2013-04-05 15:55:00,51.0,37.2,29.69,SE,129,5.0,6.0,59,0.00,,,0.23,Wunderground v.1.15,2013-04-05 19:55:00,
2013-04-05 16:00:00,51.0,37.6,29.69,ESE,114,6.0,6.0,60,0.00,,,0.23,Wunderground v.1.15,2013-04-05 20:00:00,
2013-04-05 16:10:00,51.3,34.7,29.69,SSE,150,6.0,6.0,53,0.00,,,0.23,Wunderground v.1.15,2013-04-05 20:10:00,
2013-04-05 16:15:00,51.5,35.4,29.69,SE,145,5.0,6.0,54,0.00,,,0.23,Wunderground v.1.15,2013-04-05 20:15:00,
2013-04-05 16:20:00,51.5,35.9,29.69,SE,139,5.0,5.0,55,0.00,,,0.23,Wunderground v.1.15,2013-04-05 20:20:00,
2013-04-05 16:25:00,51.1,37.3,29.69,SSE,159,6.0,9.0,59,0.00,,,0.23,Wunderground v.1.15,2013-04-05 20:25:00,
2013-04-05 16:30:00,50.6,35.0,29.69,South,180,7.0,7.0,55,0.00,,,0.23,Wunderground v.1.15,2013-04-05 20:30:00,
2013-04-05 16:40:00,51.4,36.7,29.69,South,180,7.0,7.0,57,0.00,,,0.23,Wunderground v.1.15,2013-04-05 20:40:00,
2013-04-05 16:45:00,51.0,35.8,29.69,SSW,193,7.0,8.0,56,0.00,,,0.23,Wunderground v.1.15,2013-04-05 20:45:00,
2013-04-05 16:50:00,51.2,34.2,29.70,SSE,150,8.0,13.0,52,0.00,,,0.23,Wunderground v.1.15,2013-04-05 20:50:00,
2013-04-05 16:55:00,51.2,34.2,29.70,SSE,162,9.0,13.0,52,0.00,,,0.23,Wunderground v.1.15,2013-04-05 20:55:00,
2013-04-05 17:05:00,51.3,34.3,29.70,South,184,10.0,10.0,52,0.00,,,0.23,Wunderground v.1.15,2013-04-05 21:05:00,
2013-04-05 17:10:00,51.0,34.0,29.70,ESE,108,12.0,12.0,52,0.00,,,0.23,Wunderground v.1.15,2013-04-05 21:10:00,
2013-04-05 17:15:00,50.1,35.4,29.71,SE,143,13.0,14.0,57,0.00,,,0.23,Wunderground v.1.15,2013-04-05 21:15:00,
2013-04-05 17:20:00,50.4,34.4,29.71,South,186,12.0,12.0,54,0.00,,,0.23,Wunderground v.1.15,2013-04-05 21:20:00,
2013-04-05 17:25:00,51.4,34.3,29.72,SSE,155,10.0,12.0,52,0.00,,,0.23,Wunderground v.1.15,2013-04-05 21:25:00,
2013-04-05 17:30:00,52.0,34.9,29.72,South,179,9.0,9.0,52,0.00,,,0.23,Wunderground v.1.15,2013-04-05 21:30:00,
2013-04-05 17:35:00,51.7,36.0,29.73,South,170,8.0,9.0,55,0.00,,,0.23,Wunderground v.1.15,2013-04-05 21:35:00,
2013-04-05 17:45:00,49.6,37.1,29.73,SSE,148,11.0,14.0,62,0.00,,,0.23,Wunderground v.1.15,2013-04-05 21:45:00,
2013-04-05 17:50:00,49.9,36.1,29.74,South,186,11.0,11.0,59,0.00,,,0.23,Wunderground v.1.15,2013-04-05 21:50:00,
2013-04-05 17:55:00,50.1,38.4,29.74,WNW,291,8.0,11.0,64,0.00,,,0.23,Wunderground v.1.15,2013-04-05 21:55:00,
2013-04-05 18:00:00,51.4,37.1,29.74,SSE,155,5.0,5.0,58,0.00,,,0.23,Wunderground v.1.15,2013-04-05 22:00:00,
2013-04-05 18:05:00,51.5,38.1,29.74,SE,146,5.0,5.0,60,0.00,,,0.23,Wunderground v.1.15,2013-04-05 22:05:00,
2013-04-05 18:15:00,52.2,38.3,29.74,SSW,211,3.0,5.0,59,0.00,,,0.23,Wunderground v.1.15,2013-04-05 22:15:00,
2013-04-05 18:25:00,53.7,39.7,29.74,NNE,16,2.0,12.0,59,0.00,,,0.23,Wunderground v.1.15,2013-04-05 22:25:00,
2013-04-05 18:30:00,57.9,25.8,29.74,NW,323,8.0,18.0,29,0.00,,,0.23,Wunderground v.1.15,2013-04-05 22:30:00,
2013-04-05 18:35:00,59.0,27.6,29.75,WNW,294,15.0,18.0,30,0.00,,,0.23,Wunderground v.1.15,2013-04-05 22:35:00,
2013-04-05 18:40:00,59.6,25.5,29.75,NW,318,16.0,16.0,27,0.00,,,0.23,Wunderground v.1.15,2013-04-05 22:40:00,
2013-04-05 18:45:00,59.4,26.2,29.75,NW,314,14.0,16.0,28,0.00,,,0.23,Wunderground v.1.15,2013-04-05 22:45:00,
2013-04-05 18:50:00,59.0,27.6,29.75,NW,326,13.0,13.0,30,0.00,,,0.23,Wunderground v.1.15,2013-04-05 22:50:00,
2013-04-05 19:00:00,58.9,27.5,29.76,NNW,335,12.0,12.0,30,0.00,,,0.23,Wunderground v.1.15,2013-04-05 23:00:00,
2013-04-05 19:05:00,58.8,26.6,29.76,NNW,345,14.0,14.0,29,0.00,,,0.23,Wunderground v.1.15,2013-04-05 23:05:00,
2013-04-05 19:10:00,58.5,26.3,29.77,NNE,30,15.0,15.0,29,0.00,,,0.23,Wunderground v.1.15,2013-04-05 23:10:00,
2013-04-05 19:15:00,58.1,27.6,29.77,NW,314,13.0,17.0,31,0.00,,,0.23,Wunderground v.1.15,2013-04-05 23:15:00,
2013-04-05 19:20:00,57.9,26.6,29.77,NW,316,14.0,14.0,30,0.00,,,0.23,Wunderground v.1.15,2013-04-05 23:20:00,
2013-04-05 19:25:00,57.4,28.5,29.78,NW,326,15.0,15.0,33,0.00,,,0.23,Wunderground v.1.15,2013-04-05 23:25:00,
2013-04-05 19:30:00,57.3,26.1,29.78,NNW,334,15.0,15.0,30,0.00,,,0.23,Wunderground v.1.15,2013-04-05 23:30:00,
2013-04-05 19:35:00,57.0,26.6,29.78,NNW,333,14.0,15.0,31,0.00,,,0.23,Wunderground v.1.15,2013-04-05 23:35:00,
2013-04-05 19:45:00,56.7,25.6,29.79,NW,323,12.0,13.0,30,0.00,,,0.23,Wunderground v.1.15,2013-04-05 23:45:00,
2013-04-05 19:50:00,56.8,25.7,29.79,NW,321,10.0,10.0,30,0.00,,,0.23,Wunderground v.1.15,2013-04-05 23:50:00,
2013-04-05 20:00:00,56.2,25.9,29.80,NNW,335,9.0,9.0,31,0.00,,,0.23,Wunderground v.1.15,2013-04-06 00:00:00,
2013-04-05 20:05:00,56.1,25.8,29.80,NNW,339,9.0,9.0,31,0.00,,,0.23,Wunderground v.1.15,2013-04-06 00:05:00,
2013-04-05 20:10:00,56.0,25.8,29.80,NW,311,9.0,10.0,31,0.00,,,0.23,Wunderground v.1.15,2013-04-06 00:10:00,
2013-04-05 20:15:00,55.7,26.3,29.81,NW,317,10.0,10.0,32,0.00,,,0.23,Wunderground v.1.15,2013-04-06 00:15:00,
2013-04-05 20:20:00,56.2,25.1,29.81,North,11,9.0,9.0,30,0.00,,,0.23,Wunderground v.1.15,2013-04-06 00:20:00,
2013-04-05 20:25:00,56.0,25.0,29.81,North,10,6.0,9.0,30,0.00,,,0.23,Wunderground v.1.15,2013-04-06 00:25:00,
2013-04-05 20:30:00,55.8,24.8,29.81,NNE,13,5.0,5.0,30,0.00,,,0.23,Wunderground v.1.15,2013-04-06 00:30:00,
2013-04-05 20:35:00,55.5,25.3,29.82,NNE,13,6.0,6.0,31,0.00,,,0.23,Wunderground v.1.15,2013-04-06 00:35:00,
2013-04-05 20:45:00,55.2,25.8,29.83,North,11,5.0,6.0,32,0.00,,,0.23,Wunderground v.1.15,2013-04-06 00:45:00,
2013-04-05 20:50:00,54.9,25.6,29.83,North,11,5.0,5.0,32,0.00,,,0.23,Wunderground v.1.15,2013-04-06 00:50:00,
2013-04-05 20:55:00,54.6,25.3,29.83,North,11,4.0,5.0,32,0.00,,,0.23,Wunderground v.1.15,2013-04-06 00:55:00,
2013-04-05 21:00:00,54.5,24.4,29.84,NNE,16,4.0,10.0,31,0.00,,,0.23,Wunderground v.1.15,2013-04-06 01:00:00,
2013-04-05 21:05:00,54.4,25.1,29.84,NNE,15,5.0,10.0,32,0.00,,,0.23,Wunderground v.1.15,2013-04-06 01:05:00,
2013-04-05 21:10:00,54.2,24.9,29.85,NNE,28,7.0,8.0,32,0.00,,,0.23,Wunderground v.1.15,2013-04-06 01:10:00,
2013-04-05 21:15:00,54.0,26.2,29.85,NNE,22,7.0,8.0,34,0.00,,,0.23,Wunderground v.1.15,2013-04-06 01:15:00,
2013-04-05 21:20:00,53.7,26.0,29.86,NNE,23,5.0,5.0,34,0.00,,,0.23,Wunderground v.1.15,2013-04-06 01:20:00,
2013-04-05 21:30:00,53.4,25.7,29.87,NNE,33,4.0,9.0,34,0.00,,,0.23,Wunderground v.1.15,2013-04-06 01:30:00,
2013-04-05 21:35:00,53.3,25.6,29.87,NE,34,7.0,9.0,34,0.00,,,0.23,Wunderground v.1.15,2013-04-06 01:35:00,
2013-04-05 21:45:00,53.1,24.7,29.88,NE,45,10.0,12.0,33,0.00,,,0.23,Wunderground v.1.15,2013-04-06 01:45:00,
2013-04-05 21:50:00,52.8,25.2,29.88,NNE,15,10.0,12.0,34,0.00,,,0.23,Wunderground v.1.15,2013-04-06 01:50:00,
2013-04-05 21:55:00,52.7,25.1,29.89,NE,53,9.0,13.0,34,0.00,,,0.23,Wunderground v.1.15,2013-04-06 01:55:00,
2013-04-05 22:00:00,52.4,24.8,29.89,NE,41,10.0,10.0,34,0.00,,,0.23,Wunderground v.1.15,2013-04-06 02:00:00,
2013-04-05 22:05:00,52.2,24.6,29.89,NNE,29,9.0,10.0,34,0.00,,,0.23,Wunderground v.1.15,2013-04-06 02:05:00,
2013-04-05 22:15:00,51.6,26.1,29.90,NE,50,8.0,9.0,37,0.00,,,0.23,Wunderground v.1.15,2013-04-06 02:15:00,
2013-04-05 22:20:00,51.3,25.2,29.90,NNE,23,7.0,7.0,36,0.00,,,0.23,Wunderground v.1.15,2013-04-06 02:20:00,
2013-04-05 22:30:00,50.9,25.5,29.91,NE,41,12.0,14.0,37,0.00,,,0.23,Wunderground v.1.15,2013-04-06 02:30:00,
2013-04-05 22:35:00,50.6,25.3,29.91,NE,49,11.0,14.0,37,0.00,,,0.23,Wunderground v.1.15,2013-04-06 02:35:00,
2013-04-05 22:40:00,50.3,25.6,29.91,NNE,27,9.0,9.0,38,0.00,,,0.23,Wunderground v.1.15,2013-04-06 02:40:00,
2013-04-05 22:45:00,50.0,26.0,29.91,NNE,17,9.0,11.0,39,0.00,,,0.23,Wunderground v.1.15,2013-04-06 02:45:00,
2013-04-05 22:50:00,49.8,25.8,29.91,NNE,28,11.0,11.0,39,0.00,,,0.23,Wunderground v.1.15,2013-04-06 02:50:00,
2013-04-05 22:55:00,49.5,25.5,29.92,NNE,32,10.0,11.0,39,0.00,,,0.23,Wunderground v.1.15,2013-04-06 02:55:00,
2013-04-05 23:00:00,49.2,25.3,29.92,NNE,15,10.0,10.0,39,0.00,,,0.23,Wunderground v.1.15,2013-04-06 03:00:00,
2013-04-05 23:10:00,48.8,25.5,29.92,North,11,12.0,14.0,40,0.00,,,0.23,Wunderground v.1.15,2013-04-06 03:10:00,
2013-04-05 23:15:00,48.4,26.3,29.93,NE,41,13.0,14.0,42,0.00,,,0.23,Wunderground v.1.15,2013-04-06 03:15:00,
2013-04-05 23:20:00,48.1,26.1,29.93,NE,35,11.0,14.0,42,0.00,,,0.23,Wunderground v.1.15,2013-04-06 03:20:00,
2013-04-05 23:25:00,47.8,25.8,29.93,NNE,20,10.0,16.0,42,0.00,,,0.23,Wunderground v.1.15,2013-04-06 03:25:00,
2013-04-05 23:35:00,47.2,25.8,29.94,NE,45,10.0,12.0,43,0.00,,,0.23,Wunderground v.1.15,2013-04-06 03:35:00,
2013-04-05 23:40:00,47.0,25.6,29.94,NNE,20,8.0,8.0,43,0.00,,,0.23,Wunderground v.1.15,2013-04-06 03:40:00,
2013-04-05 23:45:00,46.8,26.0,29.95,NNE,20,11.0,16.0,44,0.00,,,0.23,Wunderground v.1.15,2013-04-06 03:45:00,
2013-04-05 23:50:00,46.6,25.8,29.95,NNE,15,12.0,16.0,44,0.00,,,0.23,Wunderground v.1.15,2013-04-06 03:50:00,
2013-04-05 23:55:00,46.4,25.6,29.95,NNE,16,11.0,16.0,44,0.00,,,0.23,Wunderground v.1.15,2013-04-06 03:55:00,